Miscellaneous Local Product
Issued by NWS Hastings, NE

Home | Current Version | Previous Version | Text Only | Print | Product List | Glossary On
Versions: 1 2 3 4 5 6 7 8 9 10 11 12 13 14 15 16 17 18 19 20 21 22 23 24 25 26 27 28 29 30 31 32 33 34 35 36 37 38 39 40 41 42 43 44 45 46 47 48 49 50
000
AXUS43 KGID 281602
MISGRI

GID CWA HOURLY WEATHER ROUNDUP
NATIONAL WEATHER SERVICE HASTINGS NE
1100 AM CDT TUE APR 28 2015

NOTE: "FAIR" INDICATES FEW OR NO CLOUDS BELOW 12,000 FEET WITH NO
SIGNIFICANT WEATHER AND/OR OBSTRUCTIONS TO VISIBILITY.

...SOUTH CENTRAL NEBRASKA...

CITY           SKY/WX    TMP DP  RH WIND       PRES   REMARKS
GRAND ISLAND   SUNNY     56  44  64 N12       30.27F
HASTINGS       SUNNY     56  46  69 N10       30.26F
KEARNEY        MOSUNNY   55  43  62 N14       30.28F
ORD            SUNNY     57  42  57 N17       30.28S
YORK           SUNNY     57  46  67 N13       30.25F
AURORA         SUNNY     57  44  62 N9        30.26S
LEXINGTON      SUNNY     56  45  65 N9        30.29F
HOLDREGE       SUNNY     54  43  66 N13       30.28F
HEBRON         SUNNY     59  43  56 NW10      30.24F

...NEBRASKA PANHANDLE...

CITY           SKY/WX    TMP DP  RH WIND       PRES   REMARKS
CHADRON        MOSUNNY   53  43  68 NW5       30.32F
ALLIANCE       CLOUDY    48  42  80 NW6       30.33S
SCOTTSBLUFF    CLOUDY    49  43  80 SW5       30.34F
SIDNEY         CLOUDY    47  42  83 CALM      30.35F

...WESTERN AND NORTH CENTRAL NEBRASKA...

CITY           SKY/WX    TMP DP  RH WIND       PRES   REMARKS
VALENTINE      CLOUDY    52  38  58 NW10      30.33S
AINSWORTH      PTSUNNY   53  39  58 N13       30.32S
ONEILL         MOSUNNY   56  45  66 N14       30.29F
BROKEN BOW     PTSUNNY   56  41  57 N13G22    30.29F
IMPERIAL       MOSUNNY   54  40  59 N8        30.33F
NORTH PLATTE   MOSUNNY   56  39  53 N7        30.32F
MCCOOK         SUNNY     59  42  53 N13       30.30F

...EASTERN NEBRASKA...

CITY           SKY/WX    TMP DP  RH WIND       PRES   REMARKS
NORFOLK        SUNNY     57  44  62 N20       30.24S
SO SIOUX CITY  MOSUNNY   61  39  44 NW14      30.22S
TEKAMAH        SUNNY     63  44  50 NW10      30.21F
COLUMBUS       SUNNY     57  43  58 NW9       30.26S
ALBION         SUNNY     56  43  61 N15G22    30.26S
OMAHA EPPLEY   PTSUNNY   63  38  39 VRB6      30.20F
OFFUTT AFB     SUNNY     65  37  34 VRB6      30.19F
MILLARD        SUNNY     62  39  43 W6        30.21S
LINCOLN        SUNNY     64  41  42 N3        30.23F
NEBRASKA CITY  SUNNY     64  30  28 N8        30.20F
BEATRICE       SUNNY     65  35  32 N10       30.22F
FALLS CITY     SUNNY     64  39  39 NW9       30.19F

...NORTHERN KANSAS...

CITY           SKY/WX    TMP DP  RH WIND       PRES   REMARKS
GOODLAND       MOSUNNY   54  42  64 N12       30.33F
HILL CITY      SUNNY     57  43  59 N9        30.29S
NORTON         SUNNY     57  39  51 N9        30.28F
PHILLIPSBURG   SUNNY     61  45  55 N10G17    30.27F
SMITH CENTER   SUNNY     59  43  55 N9        30.26S
BELOIT         SUNNY     61  39  44 N9        30.23S
HAYS           MOSUNNY   61  37  41 N10       30.26R
RUSSELL        MOSUNNY   62  38  40 N12       30.23F
CONCORDIA      MOSUNNY   63  38  39 N9        30.23S
SALINA         SUNNY     61  43  51 VRB7      30.23S
TOPEKA         SUNNY     63  41  44 CALM      30.19F



USA.gov is the U.S. government's official web portal to all federal, state and local government web resources and services.